TimeMST,TemperatureF,Dew PointF,Humidity,Sea Level PressureIn,VisibilityMPH,Wind Direction,Wind SpeedMPH,Gust SpeedMPH,PrecipitationIn,Events,Conditions,WindDirDegrees,DateUTC
12:53 AM,36.0,33.1,89,30.24,10.0,NW,8.1,-,N/A,,Overcast,310,2012-11-05 07:53:00
2:45 AM,35.6,33.8,93,30.19,10.0,Calm,Calm,-,N/A,,Overcast,0,2012-11-05 09:45:00
2:53 AM,35.1,32.0,89,30.22,9.0,West,8.1,-,N/A,,Overcast,270,2012-11-05 09:53:00
3:53 AM,35.1,32.0,89,30.21,8.0,West,6.9,-,N/A,,Overcast,280,2012-11-05 10:53:00
4:53 AM,34.0,32.0,92,30.20,5.0,WNW,4.6,-,N/A,,Overcast,290,2012-11-05 11:53:00
5:53 AM,35.1,33.1,92,30.20,6.0,SW,3.5,-,N/A,,Overcast,230,2012-11-05 12:53:00
6:14 AM,33.8,33.8,100,30.13,1.8,WSW,3.5,-,N/A,,Overcast,240,2012-11-05 13:14:00
6:41 AM,33.8,33.8,100,30.13,2.5,SW,6.9,-,N/A,,Overcast,220,2012-11-05 13:41:00
6:47 AM,33.8,33.8,100,30.12,0.8,SSW,8.1,-,N/A,,Mist,200,2012-11-05 13:47:00
6:53 AM,34.0,33.1,96,30.17,0.5,South,6.9,-,N/A,Fog,Fog,190,2012-11-05 13:53:00
7:05 AM,33.8,33.8,100,30.10,0.2,South,8.1,-,N/A,Fog,Fog,170,2012-11-05 14:05:00
7:53 AM,34.0,33.1,96,30.17,0.5,South,8.1,-,N/A,Fog,Fog,170,2012-11-05 14:53:00
8:44 AM,35.6,33.8,93,30.09,2.0,South,8.1,-,N/A,,Overcast,180,2012-11-05 15:44:00
8:53 AM,36.0,35.1,97,30.14,9.0,South,11.5,-,N/A,,Overcast,170,2012-11-05 15:53:00
9:29 AM,37.4,33.8,87,30.06,10.0,South,10.4,-,N/A,,Overcast,170,2012-11-05 16:29:00
9:53 AM,37.9,34.0,86,30.11,10.0,South,12.7,-,N/A,,Overcast,170,2012-11-05 16:53:00
10:53 AM,41.0,34.0,76,30.05,10.0,South,10.4,-,N/A,,Scattered Clouds,180,2012-11-05 17:53:00
11:53 AM,46.0,35.1,66,29.99,10.0,South,12.7,-,N/A,,Mostly Cloudy,190,2012-11-05 18:53:00
12:53 PM,48.0,35.1,61,29.96,10.0,SSW,10.4,-,N/A,,Mostly Cloudy,200,2012-11-05 19:53:00
1:53 PM,53.1,36.0,52,29.90,10.0,SW,9.2,-,N/A,,Scattered Clouds,220,2012-11-05 20:53:00
2:53 PM,55.9,37.9,51,29.88,10.0,SW,9.2,-,N/A,,Mostly Cloudy,230,2012-11-05 21:53:00
3:53 PM,55.9,37.9,51,29.87,10.0,SW,9.2,-,N/A,,Scattered Clouds,230,2012-11-05 22:53:00
4:53 PM,48.9,37.0,64,29.88,10.0,WNW,3.5,-,N/A,,Scattered Clouds,300,2012-11-05 23:53:00
5:53 PM,54.0,39.9,59,29.91,10.0,WNW,12.7,-,N/A,,Overcast,290,2012-11-06 00:53:00
6:53 PM,55.9,41.0,57,29.92,10.0,NW,27.6,35.7,N/A,,Scattered Clouds,310,2012-11-06 01:53:00
7:53 PM,45.0,34.0,65,29.99,10.0,NNW,25.3,35.7,N/A,,Clear,340,2012-11-06 02:53:00
8:53 PM,41.0,32.0,70,30.02,10.0,NNW,16.1,-,N/A,,Clear,330,2012-11-06 03:53:00
9:53 PM,39.0,30.9,73,30.02,10.0,NW,13.8,-,N/A,,Clear,320,2012-11-06 04:53:00
10:53 PM,37.0,30.0,76,30.04,10.0,WNW,11.5,-,N/A,,Partly Cloudy,290,2012-11-06 05:53:00
11:53 PM,39.0,28.0,65,30.06,10.0,WNW,17.3,-,N/A,,Clear,300,2012-11-06 06:53:00